• In Austria
  • List of Countries
  • For 7 days
  • Water Temperature
  • Satellite Maps
  • Weather Map
  • News
  • Weather Widgets
  • user-avatar
    Login

    Hourly Weather Kerikeri

    Today, 19 November, Sunday

    Time Temperature Precipitation Wind Pressure Humidity
    00:00 +11°C° 0 mm 10 mps 750 mmHg 92%
    01:00 +11°C° 0.7 mm 9 mps 750 mmHg 93%
    02:00 +12°C° 0.7 mm 8 mps 749 mmHg 93%
    03:00 +12°C° 0.7 mm 8 mps 749 mmHg 93%
    04:00 +12°C° 0.7 mm 8 mps 749 mmHg 93%
    05:00 +12°C° 0.7 mm 8 mps 749 mmHg 93%
    06:00 +12°C° 0 mm 8 mps 750 mmHg 93%
    07:00 +12°C° 0.3 mm 7 mps 750 mmHg 91%
    08:00 +12°C° 0.3 mm 7 mps 750 mmHg 90%
    09:00 +14°C° 0.3 mm 7 mps 750 mmHg 88%
    10:00 +14°C° 0.1 mm 7 mps 750 mmHg 85%
    11:00 +15°C° 0.1 mm 7 mps 750 mmHg 81%
    12:00 +15°C° 0 mm 7 mps 750 mmHg 78%
    13:00 +15°C° 0 mm 7 mps 750 mmHg 75%
    14:00 +16°C° 0 mm 7 mps 750 mmHg 72%
    15:00 +17°C° 0 mm 6 mps 750 mmHg 70%
    16:00 +16°C° 0 mm 6 mps 750 mmHg 71%
    17:00 +16°C° 0 mm 6 mps 750 mmHg 72%
    18:00 +16°C° 0 mm 5 mps 750 mmHg 73%
    19:00 +15°C° 0 mm 5 mps 750 mmHg 72%
    20:00 +15°C° 0 mm 5 mps 750 mmHg 72%
    21:00 +14°C° 0 mm 4 mps 751 mmHg 72%
    22:00 +14°C° 0 mm 4 mps 751 mmHg 77%
    23:00 +13°C° 0 mm 4 mps 751 mmHg 81%

    Tomorrow, 20 November, Monday

    Time Temperature Precipitation Wind Pressure Humidity
    00:00 +12°C° 0 mm 4 mps 751 mmHg 86%
    01:00 +12°C° 0 mm 4 mps 751 mmHg 88%
    02:00 +11°C° 0 mm 4 mps 751 mmHg 90%
    03:00 +11°C° 0 mm 3 mps 750 mmHg 91%
    04:00 +11°C° 0 mm 3 mps 751 mmHg 89%
    05:00 +11°C° 0 mm 3 mps 751 mmHg 87%
    06:00 +11°C° 0 mm 3 mps 751 mmHg 85%
    07:00 +13°C° 0 mm 3 mps 752 mmHg 74%
    08:00 +17°C° 0 mm 3 mps 752 mmHg 63%
    09:00 +19°C° 0 mm 3 mps 752 mmHg 53%
    10:00 +21°C° 0 mm 3 mps 752 mmHg 50%
    11:00 +22°C° 0 mm 3 mps 753 mmHg 48%
    12:00 +24°C° 0 mm 3 mps 753 mmHg 46%
    13:00 +22°C° 0 mm 3 mps 753 mmHg 50%
    14:00 +21°C° 0 mm 3 mps 753 mmHg 55%
    15:00 +20°C° 0 mm 3 mps 753 mmHg 60%
    16:00 +20°C° 0 mm 3 mps 753 mmHg 63%
    17:00 +19°C° 0 mm 2 mps 753 mmHg 67%
    18:00 +19°C° 0 mm 1 mps 753 mmHg 71%
    19:00 +18°C° 0 mm 1 mps 753 mmHg 78%
    20:00 +15°C° 0 mm 1 mps 754 mmHg 84%
    21:00 +13°C° 0 mm 1 mps 754 mmHg 91%
    22:00 +13°C° 0 mm 1 mps 754 mmHg 92%
    23:00 +13°C° 0 mm 1 mps 754 mmHg 93%

    Day after tomorrow, 21 November, Tuesday

    Time Temperature Precipitation Wind Pressure Humidity
    00:00 +12°C° 0 mm 1 mps 754 mmHg 93%
    01:00 +12°C° 0 mm 1 mps 754 mmHg 93%
    02:00 +12°C° 0 mm 1 mps 754 mmHg 92%
    03:00 +12°C° 0 mm 1 mps 754 mmHg 91%
    04:00 +12°C° 0 mm 1 mps 754 mmHg 89%
    05:00 +13°C° 0 mm 1 mps 754 mmHg 87%
    06:00 +13°C° 0 mm 1 mps 755 mmHg 85%
    07:00 +16°C° 0 mm 1 mps 755 mmHg 74%
    08:00 +20°C° 0 mm 1 mps 755 mmHg 63%
    09:00 +23°C° 0 mm 1 mps 756 mmHg 53%
    10:00 +23°C° 0 mm 1 mps 756 mmHg 51%
    11:00 +24°C° 0 mm 2 mps 756 mmHg 50%
    12:00 +25°C° 0 mm 2 mps 756 mmHg 48%
    13:00 +23°C° 0.1 mm 2 mps 756 mmHg 57%
    14:00 +21°C° 0.1 mm 2 mps 756 mmHg 66%
    15:00 +21°C° 0.1 mm 1 mps 755 mmHg 75%
    16:00 +21°C° 0 mm 1 mps 755 mmHg 75%
    17:00 +21°C° 0 mm 1 mps 756 mmHg 74%
    18:00 +20°C° 0 mm 1 mps 756 mmHg 74%
    19:00 +19°C° 0 mm 1 mps 756 mmHg 80%
    20:00 +16°C° 0 mm 1 mps 756 mmHg 86%
    21:00 +14°C° 0 mm 1 mps 757 mmHg 92%
    22:00 +13°C° 0 mm 0 mps 757 mmHg 93%
    23:00 +13°C° 0 mm 0 mps 757 mmHg 94%

    22 November, Wednesday

    Time Temperature Precipitation Wind Pressure Humidity
    00:00 +12°C° 0 mm 0 mps 757 mmHg 94%
    01:00 +12°C° 0 mm 0 mps 757 mmHg 95%
    02:00 +13°C° 0 mm 1 mps 757 mmHg 95%
    03:00 +13°C° 0 mm 1 mps 757 mmHg 95%
    04:00 +13°C° 0 mm 1 mps 757 mmHg 94%
    05:00 +13°C° 0 mm 1 mps 757 mmHg 94%
    06:00 +13°C° 0 mm 1 mps 757 mmHg 93%
    07:00 +16°C° 0 mm 2 mps 758 mmHg 82%
    08:00 +18°C° 0 mm 2 mps 758 mmHg 70%
    09:00 +21°C° 0 mm 2 mps 759 mmHg 59%
    10:00 +21°C° 0.1 mm 2 mps 759 mmHg 62%
    11:00 +21°C° 0.1 mm 3 mps 759 mmHg 65%
    12:00 +21°C° 0.1 mm 3 mps 759 mmHg 68%
    13:00 +20°C° 0.2 mm 3 mps 759 mmHg 74%
    14:00 +19°C° 0.2 mm 3 mps 759 mmHg 80%
    15:00 +18°C° 0.2 mm 3 mps 759 mmHg 86%
    16:00 +17°C° 0.2 mm 2 mps 759 mmHg 88%
    17:00 +17°C° 0.2 mm 2 mps 759 mmHg 89%
    18:00 +16°C° 0.2 mm 2 mps 759 mmHg 91%
    19:00 +16°C° 0.1 mm 2 mps 760 mmHg 92%
    20:00 +16°C° 0.1 mm 2 mps 760 mmHg 92%
    21:00 +15°C° 0.1 mm 2 mps 761 mmHg 93%
    22:00 +15°C° 0 mm 2 mps 761 mmHg 94%
    23:00 +14°C° 0 mm 2 mps 761 mmHg 94%

    23 November, Thursday

    Time Temperature Precipitation Wind Pressure Humidity
    00:00 +14°C° 0 mm 2 mps 761 mmHg 94%
    01:00 +14°C° 0 mm 2 mps 761 mmHg 95%
    02:00 +13°C° 0 mm 2 mps 761 mmHg 95%
    03:00 +13°C° 0 mm 2 mps 761 mmHg 95%
    04:00 +13°C° 0 mm 2 mps 761 mmHg 95%
    05:00 +13°C° 0 mm 2 mps 761 mmHg 95%
    06:00 +13°C° 0 mm 2 mps 761 mmHg 95%
    07:00 +15°C° 0 mm 2 mps 762 mmHg 86%
    08:00 +17°C° 0 mm 3 mps 762 mmHg 76%
    09:00 +19°C° 0 mm 3 mps 762 mmHg 67%
    10:00 +20°C° 0 mm 3 mps 762 mmHg 61%
    11:00 +21°C° 0 mm 3 mps 762 mmHg 55%
    12:00 +22°C° 0 mm 3 mps 762 mmHg 50%
    13:00 +22°C° 0 mm 3 mps 762 mmHg 53%
    14:00 +21°C° 0 mm 3 mps 762 mmHg 56%
    15:00 +21°C° 0 mm 3 mps 761 mmHg 60%
    16:00 +20°C° 0 mm 3 mps 762 mmHg 65%
    17:00 +19°C° 0 mm 3 mps 762 mmHg 71%
    18:00 +18°C° 0 mm 2 mps 762 mmHg 77%
    19:00 +17°C° 0 mm 2 mps 762 mmHg 82%
    20:00 +16°C° 0 mm 2 mps 762 mmHg 86%
    21:00 +15°C° 0 mm 2 mps 763 mmHg 91%
    22:00 +14°C° 0 mm 2 mps 762 mmHg 92%
    23:00 +14°C° 0 mm 2 mps 762 mmHg 93%

    24 November, Friday

    Time Temperature Precipitation Wind Pressure Humidity
    00:00 +13°C° 0 mm 1 mps 762 mmHg 94%
    01:00 +13°C° 0 mm 1 mps 762 mmHg 94%
    02:00 +13°C° 0 mm 1 mps 762 mmHg 94%
    03:00 +13°C° 0 mm 1 mps 762 mmHg 94%
    04:00 +13°C° 0 mm 1 mps 762 mmHg 93%
    05:00 +13°C° 0 mm 1 mps 762 mmHg 92%
    06:00 +13°C° 0 mm 1 mps 762 mmHg 91%
    07:00 +15°C° 0 mm 1 mps 762 mmHg 82%
    08:00 +17°C° 0 mm 2 mps 762 mmHg 73%
    09:00 +19°C° 0 mm 2 mps 763 mmHg 63%
    10:00 +20°C° 0 mm 2 mps 762 mmHg 62%
    11:00 +20°C° 0 mm 2 mps 762 mmHg 61%
    12:00 +21°C° 0 mm 2 mps 762 mmHg 60%
    13:00 +20°C° 0 mm 2 mps 762 mmHg 61%
    14:00 +20°C° 0 mm 2 mps 761 mmHg 62%
    15:00 +20°C° 0 mm 2 mps 761 mmHg 63%
    16:00 +20°C° 0 mm 2 mps 761 mmHg 67%
    17:00 +19°C° 0 mm 2 mps 761 mmHg 72%
    18:00 +18°C° 0 mm 2 mps 760 mmHg 76%
    19:00 +18°C° 0 mm 1 mps 761 mmHg 80%
    20:00 +16°C° 0 mm 1 mps 761 mmHg 84%
    21:00 +15°C° 0 mm 1 mps 761 mmHg 88%
    22:00 +15°C° 0 mm 1 mps 761 mmHg 89%
    23:00 +15°C° 0 mm 1 mps 761 mmHg 90%
    Show more